Wind_Speed
2 2 3 4 4 5 7 6 7 3 2 2 5 8 3 3 3 1 3 9 12 16 19 14 12 12 10 9 10 8 7 6 5 8 9 9 10 12 11 11 11 11 13 12 11 11 10 10 9
2 1 2 2 3 4 5 9 3 2 3 2 1 10 4 6 6 4 3 8 12 14 19 15 11 10 10 12 12 10 5 4 3 10 12 12 12 13 13 13 12 11 11 10 11 10 10 9 9
5 7 2 4 4 4 5 4 2 4 3 3 2 7 9 5 7 7 5 10 12 15 15 13 12 9 7 11 11 11 9 2 5 15 13 13 14 14 13 12 12 11 11 11 11 10 9 9 9
4 3 6 3 7 6 7 6 5 4 5 3 2 3 7 7 6 6 12 13 14 14 15 14 10 8 8 8 6 10 12 7 12 15 14 15 14 13 13 12 13 11 10 9 9 8 7 8 8
1 1 1 6 7 7 9 6 3 6 6 6 4 2 2 4 6 9 12 14 14 15 14 13 11 9 7 7 7 12 11 14 15 16 16 15 14 14 12 12 12 11 9 8 8 8 8 10 10
6 9 5 10 10 9 10 6 2 7 6 7 4 3 2 5 6 7 10 15 15 17 17 14 14 11 7 5 8 15 15 16 16 15 13 13 14 13 11 10 9 8 9 8 8 9 10 10 10
8 8 10 13 14 13 9 8 3 2 4 7 8 3 3 7 4 3 8 13 16 18 18 16 15 13 8 4 9 18 18 16 15 13 12 12 12 12 10 9 8 7 8 10 10 11 10 9 9
9 1 16 14 15 11 10 8 4 1 6 7 5 2 5 6 6 6 6 12 15 18 19 16 15 15 11 5 5 15 20 16 14 13 13 12 12 11 9 7 7 8 9 9 8 8 7 6 7
10 5 9 9 12 11 10 9 5 4 8 6 8 11 7 7 7 7 8 11 12 17 20 19 17 16 12 8 9 17 17 15 13 14 12 12 11 10 8 7 7 7 7 7 7 6 5 5 4
9 0 11 11 17 9 13 10 5 7 10 8 10 8 4 8 6 8 7 11 12 15 20 20 18 18 16 12 9 15 15 13 13 12 11 11 10 9 8 7 7 6 6 7 6 5 5 3 4
9 4 10 14 17 15 12 10 8 9 9 10 6 10 10 7 9 9 8 11 12 14 17 20 19 19 18 14 9 17 13 11 13 12 13 12 10 8 8 7 6 5 5 7 7 7 6 7 9
6 3 10 8 15 12 9 11 12 7 6 12 11 10 7 11 14 12 12 11 12 13 15 18 19 19 20 17 13 15 12 13 13 12 12 11 9 8 8 7 5 4 6 7 6 6 9 10 32
8 5 9 7 10 10 8 9 8 8 5 8 7 8 12 11 15 15 12 11 14 15 15 17 18 20 20 19 15 14 12 12 12 12 13 11 9 8 7 6 4 3 4 5 4 6 7 13 19
7 5 7 10 8 8 5 10 7 9 8 8 10 11 13 13 14 16 12 11 14 16 16 17 17 19 22 22 18 15 12 12 11 12 13 11 10 8 8 6 4 1 1 2 2 5 7 8 18
9 10 12 9 5 5 12 7 8 11 10 11 9 11 12 14 13 15 15 14 14 14 17 18 18 21 20 20 17 13 12 11 12 13 12 10 8 8 7 6 5 3 3 1 1 3 8 9 13
8 7 5 3 7 2 3 4 8 9 11 9 11 8 9 11 12 13 15 19 20 16 20 20 21 21 17 16 14 13 14 10 10 11 11 10 10 9 8 6 7 2 1 1 4 0 6 11 13
7 6 5 1 2 5 5 2 8 10 12 6 14 11 9 10 9 11 13 16 16 18 22 21 21 21 16 13 12 12 11 9 10 10 9 10 11 10 10 6 6 3 1 3 3 2 6 10 12
7 7 7 4 2 5 7 4 5 6 14 8 12 14 10 7 10 9 10 11 13 13 15 17 17 16 14 11 5 11 11 8 10 9 9 11 14 12 10 11 8 7 2 4 5 3 7 8 12
7 9 9 5 4 5 6 10 11 10 9 12 12 14 10 13 10 8 9 8 10 11 12 12 11 8 6 5 6 11 7 7 7 8 9 8 12 10 9 15 10 5 7 6 7 4 6 7 10
10 12 10 6 4 2 6 5 11 15 11 11 13 18 11 16 15 12 10 9 8 10 11 13 13 10 8 7 9 9 12 7 8 8 7 9 11 7 6 9 10 6 5 7 5 4 6 7 9
10 14 14 6 0 4 9 8 9 10 11 12 15 17 22 15 18 16 13 11 7 7 10 12 11 12 11 10 8 6 7 7 9 8 8 11 12 8 7 7 10 7 5 6 6 4 6 6 7
14 12 5 3 1 0 3 5 8 7 6 10 13 15 19 17 18 18 15 13 9 7 13 14 13 11 10 10 10 8 8 8 12 13 11 12 12 9 4 2 9 10 9 4 3 5 7 6 6
16 11 1 3 1 1 4 3 5 11 6 4 6 10 15 21 18 18 16 15 9 13 11 13 14 13 11 11 10 10 9 11 11 10 10 11 11 10 6 4 4 9 13 10 9 8 7 6 5
9 4 4 4 2 4 4 5 5 4 7 3 6 7 11 16 20 20 21 17 15 18 17 16 15 13 13 13 12 13 12 11 9 8 9 10 11 11 11 8 5 3 7 5 6 7 7 7 7
10 5 2 4 4 5 4 4 7 8 6 5 5 6 9 13 20 25 24 23 19 21 22 18 17 13 13 14 14 14 14 11 10 8 9 11 10 11 13 11 9 7 7 6 8 10 10 9 9
14 11 5 7 7 9 6 6 5 8 5 4 9 9 8 11 15 19 26 24 25 25 22 20 17 14 13 14 16 16 15 14 14 11 9 11 10 12 13 12 11 9 9 11 12 11 13 12 11
14 12 10 9 6 4 5 10 11 10 7 6 6 8 6 9 12 14 28 30 24 27 28 21 18 17 15 12 16 17 16 15 15 15 14 11 13 14 13 11 10 10 12 13 13 14 14 13 13
10 8 3 8 5 8 6 6 8 9 9 8 7 8 8 10 12 11 21 31 32 21 26 28 22 16 16 15 13 15 16 16 17 17 15 14 15 14 13 12 11 13 15 16 12 11 12 12 13
7 10 9 7 5 7 7 7 12 10 10 9 10 12 13 12 11 14 14 19 28 30 28 31 27 24 19 16 15 14 15 16 18 18 19 19 18 16 15 14 12 11 11 10 10 9 10 9 10
5 7 10 9 5 7 5 8 10 11 13 13 13 15 15 14 15 16 16 18 27 32 30 29 32 32 23 20 20 16 16 17 17 17 19 20 20 19 18 15 13 13 13 12 12 11 10 7 9
Wind_Direction
59 28 157 112 103 110 130 123 117 99 23 9 203 193 219 223 163 112 349 175 174 183 187 182 170 162 159 158 155 129 85 63 130 150 146 133 120 110 117 120 128 119 108 115 114 110 110 103 103
21 88 165 147 117 130 121 130 116 76 103 72 224 224 250 235 225 270 324 180 175 180 185 195 187 188 200 204 205 216 217 24 155 161 150 139 114 119 123 129 124 116 114 118 114 111 112 109 107
109 70 116 139 144 116 145 168 115 106 33 334 220 241 250 226 233 252 178 171 172 173 179 182 187 198 205 199 207 216 207 211 144 131 129 120 121 127 127 134 126 125 131 124 120 124 118 118 120
142 117 74 149 134 125 104 118 89 37 3 340 314 244 237 242 248 196 165 167 175 181 181 181 185 190 181 177 175 169 175 152 123 124 126 125 133 132 141 136 132 134 130 128 122 121 124 124 120
229 235 191 171 137 130 119 133 104 4 12 4 2 357 159 180 169 158 165 175 180 185 189 186 186 179 174 186 195 166 156 138 130 124 126 138 138 138 145 140 136 136 137 127 125 135 134 126 125
291 259 219 179 164 146 140 148 123 7 13 21 36 131 127 150 146 166 195 200 194 190 187 189 187 183 179 200 167 176 136 123 127 129 136 140 139 146 148 137 140 137 130 129 134 132 133 131 127
333 267 206 183 159 156 162 165 120 19 39 37 74 90 90 107 86 162 196 198 200 197 189 187 184 179 167 164 152 142 130 130 134 136 130 142 145 153 149 148 141 136 124 134 145 139 140 140 136
346 54 159 167 171 175 174 176 167 45 7 17 91 109 140 98 83 96 173 190 191 195 192 191 179 185 164 151 163 150 133 137 142 134 138 148 155 157 154 150 139 128 138 140 130 135 137 144 136
4 145 167 146 156 174 172 184 169 67 35 15 127 115 134 149 90 102 123 162 177 187 191 188 187 185 173 155 124 140 141 149 147 141 150 155 159 162 151 147 133 138 135 129 135 139 136 142 135
9 21 192 181 155 190 169 174 145 77 54 61 145 109 99 145 74 77 135 152 173 180 187 189 187 187 181 160 145 156 154 148 140 147 154 158 170 164 149 146 140 146 133 119 110 123 97 88 342
26 80 155 172 181 201 171 176 138 75 71 89 113 104 88 110 79 70 109 155 165 172 176 183 179 183 179 172 142 160 155 148 143 151 154 169 174 164 150 152 153 154 122 97 90 90 71 21 332
26 138 155 157 183 180 174 171 139 91 102 111 120 107 94 86 71 72 105 139 159 162 171 173 176 179 174 168 145 149 155 147 151 151 157 174 175 171 156 158 157 124 95 98 93 72 46 339 5
19 95 182 190 158 150 190 193 132 136 116 148 125 100 104 89 75 69 97 116 149 154 157 167 172 176 173 167 158 163 156 154 157 151 166 181 179 170 166 153 138 112 104 110 113 66 29 8 9
43 68 164 178 187 177 224 190 179 161 146 134 133 113 107 98 88 73 91 99 139 152 153 158 169 168 169 167 162 160 151 153 148 162 173 183 186 175 173 161 147 99 164 146 103 33 17 355 351
71 89 128 132 128 142 157 195 195 171 166 144 130 129 111 98 89 85 83 94 118 144 154 152 155 162 163 160 165 179 167 162 166 168 177 185 188 184 176 186 165 30 217 232 188 38 20 11 5
88 85 122 213 209 220 194 166 173 193 183 184 189 138 124 107 96 100 95 94 102 123 127 134 130 146 154 169 180 173 157 165 158 169 182 192 194 196 193 215 231 278 346 213 182 258 5 8 14
74 72 55 44 194 220 200 169 188 191 167 198 198 180 166 134 107 110 117 114 107 112 123 127 135 138 143 143 151 160 168 170 170 178 194 201 210 205 214 219 235 260 129 136 179 248 347 1 13
59 45 21 4 307 230 232 236 258 240 221 203 199 193 193 159 143 122 133 138 137 130 141 139 144 145 141 136 136 180 156 178 187 197 216 219 218 217 234 225 244 238 230 227 217 279 343 360 11
326 337 341 357 327 277 286 251 248 262 239 222 192 194 199 162 175 176 145 153 160 161 164 166 162 163 171 169 145 162 160 175 197 192 203 215 208 245 237 218 248 226 228 221 224 260 333 352 6
290 305 322 6 54 289 303 293 249 248 257 251 236 210 191 186 196 189 188 154 165 175 180 178 185 193 201 205 195 195 198 214 208 204 207 208 207 219 232 237 236 208 207 243 228 261 307 320 352
282 290 301 303 324 329 310 318 261 262 251 237 235 221 217 222 213 205 195 180 170 185 179 174 181 185 185 193 184 186 205 206 192 205 212 214 220 231 260 242 202 192 230 231 236 264 285 297 342
282 323 288 248 152 286 2 315 323 306 300 272 247 236 224 209 211 216 201 201 202 207 195 198 189 190 188 173 177 181 201 205 205 216 227 214 219 221 233 203 202 206 226 241 230 272 277 288 330
268 289 227 196 234 263 270 274 288 314 322 291 272 260 242 233 224 226 220 208 197 211 205 206 200 197 197 188 195 193 192 204 201 203 215 220 219 218 230 219 204 238 233 238 250 269 274 289 317
233 271 210 218 234 248 237 226 290 308 319 298 289 237 237 229 236 232 223 213 204 204 206 203 204 203 200 205 205 206 194 185 172 197 212 220 220 224 230 237 234 224 193 213 245 262 286 290 295
218 220 234 232 218 276 214 202 264 290 307 298 324 300 259 234 230 237 226 222 216 217 208 208 201 203 205 208 205 208 206 197 198 196 208 213 213 223 230 238 233 223 228 251 267 273 278 283 291
231 217 242 260 238 262 239 228 252 272 273 314 320 313 275 255 254 233 224 222 217 212 205 206 213 210 215 221 215 212 212 208 207 204 196 210 215 226 233 238 246 247 258 254 255 270 273 278 283
219 214 247 229 267 248 229 250 270 258 258 285 324 340 317 267 265 245 214 213 221 213 211 213 216 225 216 217 220 219 213 211 211 208 206 208 214 229 234 236 250 256 259 270 271 270 273 273 271
211 221 218 222 233 247 228 248 246 265 247 275 289 313 305 275 263 255 217 207 221 207 203 213 211 215 225 225 217 221 222 216 216 215 208 215 219 224 233 235 248 263 254 260 269 275 273 262 266
204 205 212 222 211 265 256 250 256 238 241 261 278 298 309 300 273 255 240 212 211 213 212 211 211 213 217 236 230 224 222 219 223 222 217 217 222 224 226 233 243 255 258 259 269 281 272 257 271
193 216 224 238 226 223 256 256 241 239 249 253 274 284 292 289 282 259 242 227 212 204 214 219 218 220 224 229 238 236 230 223 220 226 227 226 219 219 223 233 250 261 256 259 261 273 280 270 268
Height
3166 3167 3166 3167 3171 3168 3168 3171 3170 3171 3171 3171 3171 3171 3173 3172 3173 3178 3175 3175 3176 3178 3182 3184 3187 3188 3190 3191 3192 3192 3194 3194 3193 3195 3196 3198 3198 3201 3201 3201 3201 3202 3204 3205 3205 3205 3205 3206 3207
3166 3166 3167 3167 3168 3167 3169 3169 3170 3171 3171 3170 3170 3171 3171 3172 3172 3174 3174 3175 3176 3178 3182 3185 3187 3188 3189 3190 3192 3193 3194 3194 3193 3194 3196 3197 3200 3201 3201 3202 3202 3203 3205 3205 3206 3206 3206 3207 3207
3166 3167 3167 3166 3167 3167 3169 3169 3170 3171 3171 3170 3170 3170 3170 3170 3171 3172 3174 3175 3177 3178 3182 3185 3187 3187 3188 3190 3191 3192 3194 3194 3193 3192 3196 3198 3200 3202 3203 3203 3204 3205 3205 3206 3207 3207 3208 3208 3209
3166 3167 3168 3167 3166 3168 3168 3170 3171 3171 3171 3170 3169 3170 3170 3169 3170 3171 3173 3176 3178 3180 3182 3184 3186 3187 3188 3189 3191 3192 3193 3194 3193 3195 3198 3200 3201 3202 3204 3204 3206 3206 3207 3209 3209 3210 3210 3209 3210
3166 3166 3166 3166 3167 3168 3169 3171 3172 3172 3171 3169 3169 3169 3169 3169 3169 3171 3173 3176 3178 3180 3182 3184 3185 3186 3187 3189 3191 3193 3194 3192 3194 3198 3201 3202 3202 3204 3205 3206 3207 3208 3210 3210 3211 3211 3211 3211 3210
3166 3165 3165 3165 3166 3168 3168 3170 3173 3172 3171 3170 3169 3169 3170 3169 3170 3171 3172 3174 3177 3179 3181 3183 3184 3186 3188 3190 3190 3191 3193 3194 3198 3200 3202 3204 3205 3205 3207 3208 3209 3211 3211 3211 3212 3213 3213 3212 3213
3163 3160 3162 3163 3165 3167 3169 3171 3173 3173 3172 3171 3169 3171 3171 3171 3171 3170 3171 3173 3175 3178 3180 3182 3184 3186 3188 3190 3188 3191 3195 3198 3201 3202 3202 3206 3207 3208 3209 3210 3211 3211 3213 3213 3214 3214 3215 3215 3216
3162 3160 3160 3162 3164 3167 3168 3171 3173 3173 3172 3171 3170 3172 3173 3172 3171 3170 3170 3172 3174 3177 3180 3182 3184 3186 3189 3191 3189 3192 3196 3200 3201 3205 3206 3208 3209 3210 3211 3213 3212 3215 3215 3216 3217 3218 3218 3219 3219
3161 3162 3162 3163 3163 3166 3169 3172 3173 3173 3173 3172 3172 3173 3174 3173 3172 3171 3170 3172 3174 3176 3179 3182 3185 3186 3190 3193 3194 3196 3198 3201 3204 3207 3208 3209 3211 3211 3213 3214 3216 3217 3218 3218 3219 3220 3222 3222 3222
3162 3161 3161 3164 3165 3166 3169 3173 3175 3175 3174 3173 3173 3174 3174 3175 3174 3171 3170 3171 3173 3175 3178 3181 3185 3187 3191 3194 3196 3199 3201 3203 3206 3208 3209 3211 3212 3213 3215 3216 3218 3219 3220 3221 3222 3223 3225 3225 3224
3162 3161 3161 3163 3166 3168 3170 3173 3175 3176 3176 3175 3176 3176 3176 3177 3175 3172 3170 3172 3173 3175 3178 3181 3185 3188 3191 3195 3197 3200 3202 3205 3208 3210 3211 3212 3214 3216 3217 3218 3220 3221 3223 3224 3225 3226 3226 3227 3225
3164 3163 3164 3164 3164 3169 3171 3174 3175 3177 3178 3177 3177 3176 3178 3178 3176 3173 3172 3172 3174 3176 3179 3182 3185 3189 3192 3195 3198 3200 3204 3207 3210 3211 3213 3214 3215 3218 3219 3220 3221 3223 3225 3226 3226 3227 3227 3225 3219
3163 3163 3164 3166 3164 3169 3172 3174 3175 3177 3178 3178 3179 3179 3179 3179 3177 3175 3174 3173 3174 3177 3179 3182 3186 3190 3193 3196 3200 3203 3206 3208 3210 3212 3214 3215 3217 3219 3220 3222 3223 3225 3226 3227 3227 3228 3228 3226 3222
3165 3164 3165 3167 3170 3170 3171 3174 3176 3178 3179 3180 3181 3181 3180 3180 3179 3177 3176 3174 3176 3178 3180 3183 3186 3191 3194 3197 3200 3205 3207 3209 3212 3214 3215 3216 3218 3219 3220 3222 3224 3225 3226 3227 3228 3229 3228 3226 3224
3166 3167 3168 3170 3170 3172 3173 3175 3177 3179 3180 3181 3183 3183 3182 3182 3182 3179 3179 3177 3177 3180 3182 3184 3187 3191 3195 3199 3202 3205 3207 3210 3213 3214 3216 3217 3219 3221 3222 3223 3224 3225 3226 3228 3229 3229 3229 3228 3226
3169 3171 3171 3171 3172 3173 3174 3174 3175 3177 3180 3181 3183 3184 3184 3184 3184 3182 3182 3182 3181 3183 3184 3186 3189 3193 3197 3200 3204 3207 3209 3211 3213 3215 3216 3217 3219 3220 3222 3224 3225 3226 3226 3228 3228 3229 3229 3228 3227
3171 3172 3172 3172 3173 3173 3174 3174 3175 3178 3180 3181 3183 3184 3184 3185 3186 3185 3185 3185 3185 3187 3189 3191 3192 3194 3199 3202 3206 3208 3210 3212 3214 3215 3216 3217 3218 3220 3222 3223 3225 3226 3227 3228 3228 3229 3229 3228 3227
3172 3172 3173 3173 3174 3173 3174 3175 3174 3176 3177 3180 3183 3184 3185 3186 3187 3187 3187 3188 3188 3190 3192 3194 3195 3197 3199 3202 3205 3208 3211 3212 3214 3215 3216 3217 3218 3220 3221 3223 3224 3226 3227 3228 3228 3228 3229 3228 3227
3172 3172 3173 3173 3173 3173 3173 3174 3174 3174 3176 3178 3181 3182 3184 3186 3186 3188 3188 3189 3190 3191 3194 3195 3197 3198 3200 3203 3205 3208 3210 3211 3213 3215 3216 3216 3218 3219 3219 3221 3223 3225 3227 3227 3227 3227 3228 3228 3227
3172 3171 3172 3172 3172 3173 3172 3172 3171 3172 3173 3176 3179 3182 3182 3185 3185 3187 3188 3190 3191 3192 3193 3196 3197 3198 3200 3202 3204 3207 3209 3211 3212 3214 3215 3216 3217 3218 3219 3220 3223 3225 3226 3227 3227 3227 3228 3228 3226
3171 3171 3171 3173 3172 3172 3172 3170 3169 3170 3170 3172 3173 3178 3181 3183 3184 3185 3187 3189 3190 3192 3193 3195 3197 3198 3199 3201 3203 3205 3208 3210 3211 3213 3213 3215 3217 3218 3219 3219 3222 3224 3225 3225 3226 3227 3227 3227 3226
3168 3169 3168 3170 3172 3173 3172 3172 3168 3169 3169 3168 3170 3172 3176 3178 3181 3183 3185 3187 3189 3192 3192 3194 3196 3197 3199 3200 3202 3204 3206 3208 3210 3212 3213 3214 3215 3217 3219 3220 3221 3222 3224 3224 3225 3226 3226 3226 3226
3169 3169 3168 3169 3171 3172 3172 3173 3169 3167 3167 3167 3167 3167 3169 3173 3177 3180 3183 3185 3189 3189 3191 3192 3194 3195 3198 3200 3201 3202 3204 3208 3209 3210 3212 3214 3215 3216 3218 3220 3221 3221 3221 3223 3224 3225 3225 3225 3226
3167 3168 3168 3168 3169 3170 3169 3171 3167 3166 3166 3165 3165 3165 3165 3168 3171 3176 3179 3182 3185 3188 3189 3190 3192 3193 3196 3198 3200 3202 3203 3205 3208 3209 3211 3212 3214 3215 3217 3219 3220 3219 3220 3222 3223 3223 3224 3224 3225
3166 3167 3167 3168 3167 3166 3167 3169 3165 3164 3164 3163 3163 3163 3163 3164 3166 3170 3173 3177 3181 3183 3186 3188 3190 3192 3194 3196 3197 3200 3202 3203 3206 3208 3209 3212 3213 3213 3215 3216 3218 3219 3220 3220 3221 3220 3221 3222 3222
3164 3166 3166 3165 3164 3163 3165 3164 3163 3162 3162 3162 3161 3159 3159 3159 3161 3164 3167 3171 3176 3180 3183 3186 3188 3190 3192 3194 3196 3197 3199 3202 3203 3206 3208 3210 3211 3213 3214 3215 3216 3217 3217 3218 3219 3219 3219 3219 3220
3161 3162 3163 3164 3164 3164 3162 3161 3160 3160 3160 3159 3159 3157 3156 3157 3157 3159 3162 3165 3171 3175 3179 3182 3185 3189 3191 3192 3193 3195 3197 3199 3201 3203 3206 3208 3209 3211 3213 3213 3214 3215 3215 3216 3216 3217 3216 3217 3218
3158 3159 3161 3161 3162 3160 3159 3158 3158 3158 3157 3157 3156 3156 3155 3154 3155 3156 3156 3159 3164 3170 3175 3179 3182 3185 3188 3190 3191 3192 3194 3196 3198 3200 3202 3204 3207 3208 3209 3211 3212 3213 3213 3213 3214 3214 3213 3214 3215
3155 3155 3156 3158 3158 3155 3154 3155 3154 3154 3154 3154 3153 3153 3152 3151 3151 3152 3154 3156 3159 3164 3169 3174 3177 3180 3183 3186 3188 3189 3191 3192 3195 3198 3199 3201 3202 3204 3206 3208 3209 3209 3209 3210 3211 3212 3212 3213 3213
3152 3153 3153 3154 3155 3154 3153 3153 3151 3151 3151 3151 3150 3149 3148 3148 3146 3146 3148 3151 3154 3157 3163 3167 3172 3175 3179 3183 3185 3187 3188 3189 3191 3194 3196 3198 3199 3200 3202 3204 3205 3206 3206 3207 3208 3209 3210 3210 3210